Weather History for Agadir Al Massira, Morocco

Change the Weather History Date:

Friday, November 15, 2013

  Actual Average Record
Temperature  
Mean Temperature 63 °F -  
Max Temperature 76 °F - - ()
Min Temperature 50 °F - - ()
Degree Days  
Heating Degree Days 2    
Growing Degree Days 13 (Base 50)    
Moisture  
Dew Point 54 °F    
Average Humidity 77    
Maximum Humidity 94    
Minimum Humidity 41    
Precipitation  
Precipitation 0.00 in - - ()
Sea Level Pressure  
Sea Level Pressure 29.98 in    
Wind  
Wind Speed 3 mph ()    
Max Wind Speed 15 mph    
Max Gust Speed -    
Visibility 4.0 miles    
Events      
T = Trace of Precipitation, MM = Missing Value Source: Averaged Metar Reports

Daily Weather History Graph

Daily Weather History Graph

Search for Another Location

Airport:

Trip Planner

Search our weather history database for the weather conditions in past years. The results will help you decide how hot, cold, wet, or windy it might be!

Date:

Astronomy

Nov. 15, 2013 Rise Set
Actual Time 7:03 AM WET 5:40 PM WET
Civil Twilight 6:37 AM WET 6:06 PM WET
Nautical Twilight 6:08 AM WET 6:35 PM WET
Astronomical Twilight 5:40 AM WET 7:03 PM WET
Moon 4:23 PM WET (11/15) 4:54 AM WET (11/15)
Length of Visible Light 11h 28m
Length of Day
10h 37m
Waxing Gibbous, 95% of the Moon is Illuminated
Nov 15
Waxing Gibbous
Nov 17
Full
Nov 25
Last Quarter
Dec 3
New
Dec 9
First Quarter

Hourly Weather History & Observations

Time (WET) Temp. Dew Point Humidity Pressure Visibility Wind Dir Wind Speed Gust Speed Precip Events Conditions
12:00 AM 55 °F 51 °F 84% 29.96 in 4 mi Calm Calm - -  
12:00 AM 55.4 °F 51.8 °F 88% 29.95 in 3.7 mi Calm Calm - N/A   Unknown
1:00 AM 53.6 °F 51.8 °F 94% 29.95 in 3.7 mi Calm Calm - N/A   Unknown
2:00 AM 53.6 °F 50.0 °F 88% 29.95 in 3.7 mi Calm Calm - N/A   Unknown
3:00 AM 52 °F 49 °F 85% 29.97 in 3 mi Calm Calm - -  
3:00 AM 51.8 °F 50.0 °F 94% 29.95 in 3.1 mi Calm Calm - N/A   Unknown
4:00 AM 51.8 °F 48.2 °F 88% 29.95 in 3.1 mi Calm Calm - N/A   Scattered Clouds
6:00 AM 57 °F 55 °F 89% 29.99 in 3 mi Calm Calm - -   Mostly Cloudy
6:00 AM 57.2 °F 55.4 °F 94% 29.98 in 3.1 mi Calm Calm - N/A   Mostly Cloudy
7:00 AM 53.6 °F 51.8 °F 94% 29.98 in 3.1 mi Calm Calm - N/A   Scattered Clouds
8:00 AM 53.6 °F 51.8 °F 94% 30.01 in 3.1 mi NE 1.2 mph - N/A   Mostly Cloudy
9:00 AM 57 °F 53 °F 83% 30.04 in 3 mi NE 4.6 mph - -   Mostly Cloudy
9:00 AM 57.2 °F 53.6 °F 88% 30.04 in 3.1 mi NE 4.6 mph - N/A   Mostly Cloudy
10:00 AM 62.6 °F 55.4 °F 77% 30.04 in 5.0 mi ENE 8.1 mph - N/A   Unknown
11:00 AM 66.2 °F 57.2 °F 73% 30.01 in - Calm Calm - N/A   Clear
12:00 PM 72 °F 54 °F 42% 30.00 in 6 mi Calm Calm - -  
12:00 PM 71.6 °F 53.6 °F 53% 30.01 in - Calm Calm - N/A   Clear
1:00 PM 75.2 °F 50.0 °F 41% 29.98 in 6.2 mi West 8.1 mph - N/A   Partly Cloudy
2:00 PM 71.6 °F 55.4 °F 57% 29.95 in 6.2 mi West 15.0 mph - N/A   Partly Cloudy
3:00 PM 71 °F 58 °F 53% 29.95 in 6 mi West 12.7 mph - -   Scattered Clouds
3:00 PM 71.6 °F 57.2 °F 60% 29.95 in 6.2 mi West 12.7 mph - N/A   Partly Cloudy
4:00 PM 69.8 °F 57.2 °F 64% 29.95 in 6.2 mi WSW 11.5 mph - N/A   Unknown
5:00 PM 68.0 °F 59.0 °F 73% 29.95 in 6.2 mi WSW 10.4 mph - N/A   Unknown
6:00 PM 64 °F 58 °F 77% 29.96 in 3 mi WSW 5.8 mph - -   Partly Cloudy
6:00 PM 64.4 °F 59.0 °F 83% 29.95 in 3.1 mi WSW 4.6 mph - N/A   Scattered Clouds
7:00 PM 64.4 °F 59.0 °F 83% 29.98 in 3.1 mi WSW 6.9 mph - N/A   Mostly Cloudy
8:00 PM 64.4 °F 59.0 °F 83% 29.98 in 3.1 mi WSW 5.8 mph - N/A   Mostly Cloudy
9:00 PM 63 °F 58 °F 78% 29.99 in 3 mi SW 5.8 mph - -   Mostly Cloudy
9:00 PM 62.6 °F 57.2 °F 82% 29.98 in 3.1 mi SW 5.8 mph - N/A   Mostly Cloudy
11:00 PM 60.8 °F 55.4 °F 82% 29.98 in 3.1 mi Calm Calm - N/A   Scattered Clouds